Content
SEND FEEDBACK

Daily
Averages
Monthly
Summary
United States of America

MAURICEVILLE, TEXAS


Home > North America > United States > Texas
Elevation: 6 meters     Latitude: 30 14N     Longitude: 093 44W

WEATHER
 
SELECT A DAY
Number of Records: 115,567;   Date Range: 8/25/05 - 10/24/14
 
SHARE

PRINT THIS DATA

[ ← Previous Day ]
WEATHER ALMANAC - 25 FEBRUARY, 2013
[ Next Day → ]
[ °F ]   °C
Weather ElementAverageHighLow
Temperature17.6 °C23 °C (2:55 pm)9 °C (11:55 pm)
Dewpoint11.8 °C21 °C (10:55 am)0 °C (5:15 pm)
Humidity75.4 %100 % (12:35 am)23 % (5:15 pm)
Barometer1002.4 hPa1006.4 hPa (11:35 pm)998.3 hPa (1:55 pm)
Wind Speed14.3 km/h31.5 km/h (8:15 pm)
Wind Gust51.8 km/h (10:15 pm)
Weather ElementAverage
Visibility10.5 km
Wind DirectionSSE (160.4 °)

Weather ElementTotal
Precipitation9.4 mm
Heating Degree Days2.3 (Base 18.3)
Growing Degree Days6 (Base 10)
Averaged from 70 records on 25 February, 2013
WEATHER CONDITIONS BREAKOUT
WIND DIRECTION BREAKOUT
WEATHER BY HOUR - 25 FEBRUARY, 2013
[ °F ]   °C
Local TimeTemperatureDewpointHumidityBarometerVisibilityWind DirectionWind SpeedGust SpeedPrecipitationEventsConditions
12:35 AM16 °C16 °C100 %1005.4 hPa11.3 kmENE (60°)13 km/hOvercast
12:55 AM16 °C16 °C100 %1005.4 hPa11.3 kmENE (70°)11.1 km/hOvercast
1:15 AM16 °C16 °C100 %1005.1 hPa11.3 kmEast (80°)13 km/hOvercast
1:35 AM16 °C16 °C100 %1004.7 hPa11.3 kmENE (70°)9.3 km/hOvercast
1:55 AM16 °C16 °C100 %1004.4 hPa11.3 kmEast (80°)14.8 km/hOvercast
2:15 AM16 °C16 °C100 %1004.4 hPa11.3 kmEast (80°)13 km/hOvercast
2:35 AM16 °C16 °C100 %1003.7 hPa11.3 kmEast (90°)14.8 km/hOvercast
2:55 AM16 °C16 °C100 %1003 hPa11.3 kmEast (90°)14.8 km/hOvercast
3:15 AM16 °C16 °C100 %1003 hPa11.3 kmEast (90°)9.3 km/hOvercast
3:35 AM16 °C16 °C100 %1003 hPa11.3 kmEast (80°)5.6 km/hOvercast
3:55 AM16 °C16 °C100 %1002.7 hPa11.3 kmEast (90°)7.4 km/hOvercast
4:15 AM16 °C16 °C100 %1002.7 hPa11.3 kmEast (80°)7.4 km/hOvercast
4:35 AM16 °C16 °C100 %1002.4 hPa11.3 kmENE (60°)9.3 km/hOvercast
4:55 AM16 °C16 °C100 %1003 hPa16.1 kmENE (70°)7.4 km/hOvercast
5:15 AM16 °C16 °C100 %1003 hPa4.8 kmEast (80°)7.4 km/hOvercast
5:35 AM16 °C16 °C100 %1003 hPa4 kmENE (60°)9.3 km/hOvercast
5:55 AM16 °C16 °C100 %1003 hPa2.9 kmENE (60°)7.4 km/hOvercast
6:15 AM16 °C16 °C100 %1002.7 hPa1.9 kmEast (90°)5.6 km/hOvercast
6:35 AM17 °C17 °C100 %1003 hPa2.4 kmEast (80°)7.4 km/hOvercast
6:55 AM17 °C17 °C100 %1003 hPa3.2 kmEast (80°)5.6 km/hOvercast
7:15 AM17 °C17 °C100 %1003 hPa1.6 kmCalmOvercast
7:35 AM17 °C17 °C100 %1003.4 hPa0.8 kmCalmFogFog
7:55 AM18 °C18 °C100 %1003.4 hPa0.3 kmCalmFogFog
8:15 AM18 °C18 °C100 %1003.7 hPa0.3 kmCalmFogFog
8:35 AM18 °C18 °C100 %1003.7 hPa0.8 kmENE (70°)7.4 km/hFogFog
8:55 AM18 °C18 °C100 %1003.7 hPa0.8 kmCalmFogFog
9:15 AM18 °C18 °C100 %1004.1 hPa0.8 kmCalmFogFog
9:35 AM18 °C18 °C100 %1003.4 hPa0.3 kmENE (70°)7.4 km/hFogFog
9:55 AM19 °C19 °C100 %1003 hPa0.8 kmEast (100°)5.6 km/hFogFog
10:15 AM20 °C20 °C100 %1003 hPa2.9 kmSE (140°)9.3 km/hOvercast
10:35 AM20 °C20 °C100 %1003 hPa1.6 kmSE (130°)7.4 km/hOvercast
10:55 AM21 °C21 °C100 %1002 hPa4.8 kmSSE (150°)11.1 km/hOvercast
11:15 AM21 °C21 °C100 %1002 hPa6.4 kmSSE (150°)11.1 km/hOvercast
11:35 AM21 °C21 °C100 %1001.4 hPa8 kmSSE (160°)14.8 km/hThunderstormOvercast
11:55 AM21 °C21 °C100 %1000.3 hPa8 kmSSE (150°)16.7 km/hRain-ThunderstormLight Thunderstorms and Rain
12:15 PM20 °C20 °C100 %1000 hPa4 kmSouth (180°)22.2 km/h27.8 km/h1.02 mmRain-ThunderstormHeavy Thunderstorms and Rain
12:35 PM21 °C21 °C100 %999.7 hPa6.4 kmSouth (170°)16.7 km/h2.03 mmThunderstormOvercast
12:55 PM22 °C21 °C94 %999.7 hPa6.4 kmSouth (180°)22.2 km/h33.3 km/h2.79 mmThunderstormOvercast
1:15 PM21 °C21 °C100 %999 hPa8 kmSouth (180°)16.7 km/h31.5 km/h0.25 mmOvercast
1:35 PM22 °C21 °C94 %998.6 hPa11.3 kmSW (220°)14.8 km/h0.76 mmOvercast
1:55 PM22 °C21 °C94 %998.3 hPa11.3 kmSW (220°)13 km/h1.02 mmOvercast
2:15 PM22 °C18 °C78 %998.3 hPa16.1 kmWest (260°)18.5 km/h27.8 km/hMostly Cloudy
2:35 PM22 °C15 °C64 %998.3 hPa16.1 kmWest (260°)13 km/h25.9 km/h0.25 mmMostly Cloudy
2:55 PM23 °C12 °C50 %998.3 hPa16.1 kmWSW (250°)22.2 km/h31.5 km/h0.25 mmScattered Clouds
3:15 PM23 °C10 °C44 %998.3 hPa16.1 kmWSW (250°)14.8 km/h29.6 km/h0.25 mmScattered Clouds
3:35 PM23 °C10 °C44 %998.6 hPa16.1 kmWSW (250°)20.4 km/h37 km/h0.25 mmClear
3:55 PM22 °C7 °C38 %998.6 hPa16.1 kmWSW (240°)24.1 km/h38.9 km/h0.25 mmClear
4:15 PM22 °C5 °C33 %999 hPa16.1 kmWSW (250°)27.8 km/h40.7 km/hClear
4:35 PM22 °C5 °C33 %998.6 hPa16.1 kmWSW (250°)14.8 km/h35.2 km/hClear
4:55 PM22 °C5 °C33 %998.3 hPa16.1 kmSW (230°)16.7 km/h27.8 km/h0.25 mmClear
5:15 PM22 °C0 °C23 %998.6 hPa16.1 kmWSW (240°)20.4 km/h40.7 km/hClear
5:35 PM21 °C0 °C25 %999 hPa16.1 kmSW (230°)18.5 km/h33.3 km/hClear
5:55 PM20 °C0 °C26 %999.7 hPa16.1 kmWSW (240°)18.5 km/h35.2 km/hClear
6:15 PM19 °C0 °C28 %1000 hPa16.1 kmWSW (250°)24.1 km/h33.3 km/hClear
6:35 PM18 °C0 °C30 %1000.3 hPa16.1 kmWest (260°)24.1 km/h44.4 km/hClear
6:55 PM18 °C0 °C30 %1000.7 hPa16.1 kmWest (260°)18.5 km/h35.2 km/hClear
7:15 PM17 °C0 °C32 %1001.4 hPa16.1 kmWSW (250°)25.9 km/h38.9 km/hClear
7:35 PM17 °C1 °C34 %1002 hPa16.1 kmWest (260°)24.1 km/h48.1 km/hClear
7:55 PM15 °C1 °C39 %1002.4 hPa16.1 kmWest (270°)22.2 km/h37 km/hClear
8:15 PM15 °C0 °C36 %1003 hPa16.1 kmWest (260°)31.5 km/h50.1 km/hClear
8:35 PM14 °C0 °C38 %1003.4 hPa16.1 kmWest (270°)25.9 km/h44.4 km/hClear
8:55 PM13 °C0 °C41 %1003.7 hPa16.1 kmWest (260°)25.9 km/h35.2 km/hClear
9:15 PM12 °C0 °C44 %1004.1 hPa16.1 kmWest (270°)18.5 km/h50.1 km/hClear
9:55 PM12 °C0 °C44 %1005.1 hPa16.1 kmWest (270°)20.4 km/h40.7 km/hClear
10:15 PM11 °C0 °C47 %1005.8 hPa16.1 kmWest (260°)29.6 km/h51.8 km/hClear
10:35 PM11 °C0 °C47 %1006.1 hPa16.1 kmWest (270°)18.5 km/h42.6 km/hClear
10:55 PM10 °C1 °C54 %1006.1 hPa16.1 kmWest (280°)22.2 km/h40.7 km/hClear
11:15 PM10 °C0 °C50 %1006.1 hPa16.1 kmWest (260°)20.4 km/h40.7 km/hClear
11:35 PM10 °C1 °C54 %1006.4 hPa16.1 kmWest (260°)14.8 km/hClear
11:55 PM9 °C1 °C58 %1006.4 hPa16.1 kmWest (260°)14.8 km/h31.5 km/hClear
Hourly data recorded from KORG, located 0 kilometers away from Mauriceville, Texas







STORIES FROM OUR PARTNERS